Regional Weather Roundup
Issued by NWS Cleveland, OH

Home | Current Version | Previous Version | Graphics & Text | Print | Product List | Glossary On
Versions: 1 2 3 4 5 6 7 8 9 10 11 12 13 14 15 16 17 18 19 20 21 22 23 24 25 26 27 28 29 30 31 32 33 34 35 36 37 38 39 40 41 42 43 44 45 46 47 48 49 50
000
ASUS41 KCLE 210800
RWRCLE
OHIO REGIONAL WEATHER ROUNDUP
NATIONAL WEATHER SERVICE WILMINGTON, OH
400 AM EDT FRI JUL 21 2017

NOTE: "FAIR" INDICATES FEW OR NO CLOUDS BELOW 12,000 FEET WITH NO
SIGNIFICANT WEATHER AND/OR OBSTRUCTIONS TO VISIBILITY.

OHZ001>008-015>018-024>027-034-035-043-044-210900-
   NORTHWEST OHIO

CITY           SKY/WX    TMP DP  RH WIND       PRES   REMARKS
DEFIANCE       FAIR     N/A N/A N/A NW3       29.96S
FINDLAY        FAIR      75  71  87 CALM      29.93F FOG
TOLEDO EXPRESS FAIR      71  71 100 CALM      29.93F
TOLEDO EXEC    FAIR      74  72  93 CALM      29.94F
LIMA           FAIR      77  75  93 SW5       29.95F
$$

OHZ009>014-019>023-028>033-038-089-210900-
   NORTHEAST OHIO

CITY           SKY/WX    TMP DP  RH WIND       PRES   REMARKS
CLE-HOPKINS    FAIR      76  71  85 S6        29.97F
CLE-LAKEFRONT  CLOUDY    77  70  79 SW8       29.93F
CUY CO. ARPT   NOT AVBL
LORAIN-ELYRIA  FAIR      71  66  84 CALM      29.96F
ASHTABULA      FAIR      69  69 100 CALM      29.97S
AKRON-CANTON   FAIR      72  68  87 CALM      29.98F
WOOSTER        NOT AVBL
MANSFIELD      FAIR      75  73  93 SW5       29.98F
YOUNGSTOWN     MOCLDY    72  70  93 CALM      29.98S
$$

OHZ042-051>053-060>062-070>072-077>081-210900-
  SOUTHWEST OHIO

CITY           SKY/WX    TMP DP  RH WIND       PRES   REMARKS
CINC-COVINGTON MOCLDY    79  75  87 SW7       29.99F
CINC-LUNKEN    MOCLDY    77  75  93 CALM      29.98F
HAMILTON       MOCLDY    81  74  79 W7        29.98F
DAYTON         NOT AVBL
WRIGHT-PAT AFB CLOUDY    79  76  90 SW9       29.97F
DAYTON GENERAL MOCLDY    80  72  76 SW7       29.98F
WILMINGTON     FAIR      75  74  96 SW5       29.99F
$$

OHZ036-037-039>041-045>050-054>059-063>069-073>076-082>088-210900-
  CENTRAL AND SOUTHEAST OHIO

CITY           SKY/WX    TMP DP  RH WIND       PRES   REMARKS
COLUMBUS       MOCLDY    79  77  94 S5        29.96F
OSU AIRPORT    MOCLDY    78  76  93 W5        29.96F
BOLTON FIELD   NOT AVBL
RICKENBACK AFB NOT AVBL
NEWARK         FAIR      74  73  97 CALM      29.96F FOG
MARION         FAIR      75  72  90 SW3       29.96F FOG
LANCASTER      FAIR      76  74  93 SW3       29.97F
ZANESVILLE     FAIR      74  72  93 E3        29.97F FOG
NEW PHILLY     FOG       72  72 100 CALM      29.98S VSB 1/2
$$




USA.gov is the U.S. government's official web portal to all federal, state and local government web resources and services.